ACA1355 KSTL-CYYZ

Flight info

Callsign ACA1355
Flight time N/A
Altitude 39000
Route JHART7 VHP DCT FWA DCT CRL DCT QWERI NUBER6
Aircraft B78X/H-SDE1E2E3FGHIJ2J3J4J5M1RWXY/LB1D1

Departure

Time 2026-04-29 16:32
Airport St. Louis Lambert International Airport (KSTL)

Arrival

Time N/A
Airport Toronto Pearson International Airport (CYYZ)
Time Latitude Longitude Altitude Speed Heading
2026-04-29 16:19 38.74149 -90.36217 558 ft 0 kts 32°
2026-04-29 16:22 38.74142 -90.36222 568 ft 3 kts 32°
2026-04-29 16:22 38.74127 -90.36233 569 ft 3 kts 33°
2026-04-29 16:23 38.74113 -90.36249 569 ft 3 kts 70°
2026-04-29 16:23 38.74108 -90.36273 571 ft 3 kts 107°
2026-04-29 16:23 38.74111 -90.36283 569 ft 0 kts 117°
2026-04-29 16:27 38.74103 -90.36264 568 ft 8 kts 117°
2026-04-29 16:27 38.74057 -90.36155 567 ft 18 kts 121°
2026-04-29 16:27 38.73985 -90.36003 569 ft 22 kts 121°
2026-04-29 16:28 38.73976 -90.35878 567 ft 6 kts 55°
2026-04-29 16:28 38.73994 -90.35864 570 ft 4 kts 25°
2026-04-29 16:28 38.74038 -90.35843 564 ft 9 kts 20°
2026-04-29 16:28 38.74095 -90.35795 568 ft 10 kts 53°
2026-04-29 16:29 38.74089 -90.35711 566 ft 11 kts 115°
2026-04-29 16:29 38.74079 -90.35598 565 ft 14 kts 77°
2026-04-29 16:29 38.74061 -90.35506 571 ft 10 kts 115°
2026-04-29 16:29 38.74022 -90.35422 570 ft 14 kts 120°
2026-04-29 16:30 38.73957 -90.35288 575 ft 21 kts 123°
2026-04-29 16:30 38.73868 -90.35113 579 ft 26 kts 123°
2026-04-29 16:30 38.73768 -90.34914 583 ft 25 kts 121°
2026-04-29 16:30 38.73710 -90.34744 581 ft 10 kts 79°
2026-04-29 16:31 38.73712 -90.34739 580 ft 0 kts 73°
2026-04-29 16:31 38.73731 -90.34713 580 ft 10 kts 42°
2026-04-29 16:31 38.73812 -90.34705 579 ft 10 kts 327°
2026-04-29 16:31 38.73837 -90.34765 582 ft 8 kts 290°
2026-04-29 16:32 38.73880 -90.34858 581 ft 22 kts 303°
2026-04-29 16:32 38.74108 -90.35317 568 ft 107 kts 302°
2026-04-29 16:32 38.74641 -90.36407 732 ft 168 kts 300°
2026-04-29 16:32 38.75303 -90.37771 1391 ft 194 kts 300°
2026-04-29 16:33 38.77465 -90.40015 3245 ft 202 kts 345°
2026-04-29 16:33 38.78828 -90.40343 3531 ft 199 kts 348°
2026-04-29 16:33 38.80127 -90.40641 4019 ft 190 kts 348°
2026-04-29 16:34 38.81496 -90.40905 3964 ft 206 kts 351°
2026-04-29 16:34 38.82950 -90.41115 4031 ft 217 kts 352°
2026-04-29 16:34 38.84460 -90.41062 4384 ft 219 kts 10°
2026-04-29 16:34 38.85954 -90.40346 4296 ft 242 kts 20°
2026-04-29 16:35 38.87574 -90.39444 4232 ft 260 kts 26°
2026-04-29 16:35 38.88863 -90.37889 4669 ft 258 kts 53°
2026-04-29 16:35 38.89529 -90.35720 4420 ft 270 kts 72°
2026-04-29 16:35 38.89920 -90.33342 4331 ft 272 kts 75°
2026-04-29 16:36 38.90206 -90.30938 4253 ft 274 kts 85°
2026-04-29 16:36 38.89902 -90.28472 4510 ft 283 kts 102°
2026-04-29 16:36 38.89495 -90.25994 5059 ft 286 kts 98°
2026-04-29 16:36 38.89183 -90.23473 5808 ft 287 kts 95°
2026-04-29 16:37 38.88834 -90.20916 6416 ft 297 kts 97°
2026-04-29 16:37 38.88447 -90.18251 6958 ft 303 kts 97°
2026-04-29 16:37 38.88097 -90.15671 7626 ft 278 kts 96°
2026-04-29 16:37 38.87901 -90.14092 8085 ft 268 kts 96°
2026-04-29 16:38 38.87500 -90.10835 8137 ft 267 kts 97°
2026-04-29 16:38 38.87191 -90.08711 8987 ft 245 kts 100°
2026-04-29 16:38 38.86840 -90.06408 8811 ft 276 kts 97°
2026-04-29 16:38 38.86510 -90.03936 9087 ft 289 kts 98°
2026-04-29 16:39 38.86151 -90.01270 8935 ft 310 kts 99°
2026-04-29 16:39 38.85744 -89.98547 8779 ft 311 kts 99°
2026-04-29 16:39 38.85361 -89.95817 8653 ft 311 kts 98°
2026-04-29 16:39 38.85002 -89.93076 8527 ft 311 kts 98°
2026-04-29 16:40 38.84639 -89.90342 8399 ft 310 kts 98°
2026-04-29 16:40 38.84267 -89.87628 8265 ft 308 kts 98°
2026-04-29 16:40 38.83897 -89.84920 8137 ft 307 kts 98°
2026-04-29 16:40 38.83529 -89.82215 8020 ft 307 kts 98°
2026-04-29 16:41 38.83163 -89.79522 7881 ft 306 kts 98°
2026-04-29 16:41 38.82799 -89.76861 7768 ft 305 kts 98°
2026-04-29 16:41 38.82428 -89.74159 7640 ft 304 kts 98°
2026-04-29 16:41 38.82064 -89.71502 7515 ft 302 kts 98°
2026-04-29 16:42 38.81705 -89.68881 7392 ft 301 kts 98°
2026-04-29 16:42 38.81342 -89.66248 7263 ft 300 kts 97°
2026-04-29 16:42 38.80980 -89.63617 7146 ft 300 kts 97°
2026-04-29 16:42 38.80617 -89.60986 7041 ft 298 kts 97°
2026-04-29 16:43 38.80255 -89.58368 6899 ft 297 kts 97°
2026-04-29 16:43 38.79895 -89.55774 6786 ft 295 kts 97°
2026-04-29 16:43 38.79535 -89.53187 6658 ft 294 kts 97°
2026-04-29 16:43 38.79316 -89.50598 6523 ft 290 kts 80°
2026-04-29 16:44 38.79679 -89.48080 6403 ft 289 kts 76°
2026-04-29 16:44 38.79977 -89.45545 6275 ft 288 kts 78°
2026-04-29 16:44 38.80274 -89.43015 6146 ft 287 kts 77°
2026-04-29 16:44 38.80596 -89.40506 6021 ft 285 kts 76°
2026-04-29 16:45 38.80926 -89.38003 5887 ft 284 kts 77°
2026-04-29 16:45 38.81245 -89.35510 5758 ft 283 kts 77°
2026-04-29 16:45 38.81560 -89.33023 5750 ft 282 kts 77°
2026-04-29 16:45 38.81879 -89.30519 6070 ft 293 kts 77°
2026-04-29 16:46 38.82223 -89.27857 6515 ft 322 kts 77°
2026-04-29 16:46 38.82599 -89.24896 7095 ft 342 kts 78°
2026-04-29 16:46 38.82973 -89.21883 8215 ft 342 kts 78°
2026-04-29 16:46 38.83347 -89.18892 9423 ft 339 kts 78°
2026-04-29 16:47 38.83727 -89.15894 10444 ft 343 kts 78°
2026-04-29 16:47 38.84119 -89.12801 11042 ft 360 kts 78°
2026-04-29 16:47 38.84528 -89.09554 11573 ft 377 kts 77°
2026-04-29 16:47 38.84949 -89.06165 12241 ft 390 kts 77°
2026-04-29 16:48 38.85380 -89.02695 12970 ft 400 kts 77°
2026-04-29 16:48 38.85825 -88.99126 13713 ft 409 kts 76°
2026-04-29 16:48 38.86278 -88.95487 14415 ft 417 kts 76°
2026-04-29 16:48 38.86736 -88.91780 15123 ft 423 kts 77°
2026-04-29 16:49 38.87199 -88.88023 15838 ft 429 kts 77°
2026-04-29 16:49 38.87666 -88.84221 16573 ft 434 kts 77°
2026-04-29 16:49 38.88139 -88.80370 17287 ft 439 kts 78°
2026-04-29 16:49 38.88616 -88.76467 17999 ft 445 kts 78°
2026-04-29 16:50 38.89098 -88.72518 18600 ft 452 kts 78°
2026-04-29 16:50 38.89585 -88.68509 19181 ft 457 kts 78°
2026-04-29 16:50 38.90076 -88.64462 19773 ft 461 kts 79°
2026-04-29 16:50 38.90571 -88.60375 20359 ft 465 kts 79°
2026-04-29 16:51 38.91067 -88.56258 20939 ft 469 kts 79°
2026-04-29 16:51 38.91566 -88.52104 21510 ft 472 kts 79°
2026-04-29 16:51 38.92158 -88.47950 22069 ft 473 kts 70°
2026-04-29 16:51 38.93221 -88.43955 22609 ft 473 kts 66°
2026-04-29 16:52 38.94326 -88.40015 23127 ft 477 kts 66°
2026-04-29 16:52 38.95471 -88.35994 23640 ft 480 kts 66°
2026-04-29 16:52 38.96611 -88.31943 24047 ft 484 kts 66°
2026-04-29 16:52 38.97748 -88.27862 24449 ft 488 kts 66°
2026-04-29 16:53 38.98895 -88.23751 24844 ft 491 kts 66°
2026-04-29 16:53 39.00062 -88.19586 25217 ft 495 kts 66°
2026-04-29 16:53 39.00241 -88.18945 25275 ft 496 kts 66°
2026-04-29 16:54 39.01088 -88.15912 25550 ft 498 kts 66°
2026-04-29 16:54 39.02258 -88.11707 25934 ft 502 kts 66°
2026-04-29 16:54 39.02308 -88.11527 25949 ft 502 kts 66°
2026-04-29 16:55 39.02337 -88.11423 25957 ft 502 kts 66°
2026-04-29 16:55 39.03530 -88.07131 26366 ft 506 kts 66°
2026-04-29 16:56 39.04718 -88.02853 26750 ft 510 kts 66°
2026-04-29 16:56 39.05900 -87.98589 27138 ft 513 kts 66°
2026-04-29 16:56 39.07100 -87.94247 27532 ft 517 kts 66°
2026-04-29 16:56 39.08313 -87.89856 27935 ft 521 kts 66°
2026-04-29 16:57 39.09530 -87.85441 28341 ft 525 kts 66°
2026-04-29 16:57 39.10754 -87.80996 28797 ft 529 kts 67°
2026-04-29 16:57 39.11984 -87.76517 29232 ft 532 kts 67°
2026-04-29 16:57 39.13218 -87.72016 29660 ft 535 kts 67°
2026-04-29 16:58 39.14463 -87.67469 30059 ft 539 kts 67°
2026-04-29 16:58 39.15711 -87.62904 30408 ft 543 kts 67°
2026-04-29 16:58 39.16544 -87.59850 30645 ft 546 kts 67°
2026-04-29 16:58 39.17805 -87.55219 31005 ft 549 kts 68°
2026-04-29 16:59 39.19072 -87.50563 31373 ft 552 kts 68°
2026-04-29 16:59 39.20347 -87.45867 31745 ft 556 kts 68°
2026-04-29 16:59 39.21625 -87.41151 32131 ft 559 kts 68°
2026-04-29 16:59 39.22908 -87.36405 32499 ft 562 kts 68°
2026-04-29 17:00 39.24197 -87.31631 32845 ft 565 kts 68°
2026-04-29 17:00 39.25491 -87.26829 33206 ft 569 kts 68°
2026-04-29 17:00 39.26796 -87.21976 33562 ft 572 kts 68°
2026-04-29 17:00 39.28104 -87.17100 33929 ft 576 kts 68°
2026-04-29 17:01 39.29416 -87.12204 34222 ft 579 kts 68°
2026-04-29 17:01 39.30733 -87.07279 34507 ft 582 kts 68°
2026-04-29 17:01 39.32051 -87.02339 34967 ft 581 kts 68°
2026-04-29 17:01 39.33346 -86.97471 35460 ft 579 kts 69°
2026-04-29 17:02 39.34650 -86.92569 35920 ft 577 kts 69°
2026-04-29 17:02 39.35950 -86.87669 36386 ft 575 kts 69°
2026-04-29 17:02 39.37244 -86.82784 36790 ft 575 kts 69°
2026-04-29 17:02 39.38537 -86.77893 37196 ft 574 kts 68°
2026-04-29 17:03 39.40141 -86.73192 37633 ft 568 kts 56°
2026-04-29 17:03 39.42296 -86.68969 38058 ft 559 kts 45°
2026-04-29 17:03 39.44916 -86.65311 38480 ft 549 kts 35°
2026-04-29 17:03 39.47898 -86.62302 38848 ft 538 kts 25°
2026-04-29 17:04 39.51100 -86.59798 38966 ft 538 kts 23°
2026-04-29 17:04 39.54297 -86.57359 38981 ft 531 kts 23°
2026-04-29 17:04 39.60661 -86.52590 38955 ft 532 kts 23°
2026-04-29 17:05 39.67046 -86.47720 38961 ft 532 kts 23°
2026-04-29 17:05 39.73439 -86.42877 38962 ft 531 kts 23°
2026-04-29 17:06 39.79821 -86.38010 38977 ft 532 kts 24°
2026-04-29 17:06 39.85894 -86.32367 38980 ft 540 kts 31°
2026-04-29 17:07 39.91868 -86.26438 38981 ft 540 kts 31°
2026-04-29 17:07 39.97849 -86.20478 39005 ft 540 kts 31°
2026-04-29 17:08 40.03753 -86.14584 38969 ft 530 kts 31°
2026-04-29 17:08 40.09648 -86.08698 38940 ft 534 kts 31°
2026-04-29 17:09 40.15535 -86.02789 38941 ft 534 kts 31°
2026-04-29 17:09 40.21436 -85.96867 39062 ft 534 kts 32°
2026-04-29 17:10 40.27321 -85.90937 39154 ft 534 kts 32°
2026-04-29 17:10 40.33209 -85.84999 39233 ft 534 kts 32°
2026-04-29 17:11 40.39046 -85.79093 39276 ft 534 kts 32°
2026-04-29 17:11 40.41985 -85.76117 38954 ft 534 kts 32°
2026-04-29 17:11 40.44918 -85.73141 38958 ft 532 kts 32°
2026-04-29 17:12 40.50779 -85.67187 38959 ft 532 kts 32°
2026-04-29 17:12 40.55646 -85.62232 38959 ft 532 kts 32°
2026-04-29 17:13 40.62482 -85.55257 38952 ft 532 kts 32°
2026-04-29 17:13 40.68331 -85.49273 38946 ft 533 kts 32°
2026-04-29 17:14 40.74196 -85.43260 38942 ft 534 kts 32°
2026-04-29 17:14 40.80016 -85.37279 38927 ft 534 kts 32°
2026-04-29 17:15 40.85870 -85.31250 38940 ft 533 kts 33°
2026-04-29 17:15 40.91723 -85.25207 38941 ft 533 kts 33°
2026-04-29 17:16 40.97526 -85.19080 38949 ft 536 kts 40°
2026-04-29 17:16 41.02501 -85.11595 38945 ft 542 kts 46°
2026-04-29 17:17 41.07334 -85.03923 38938 ft 540 kts 46°
2026-04-29 17:17 41.12143 -84.96335 38940 ft 541 kts 46°
2026-04-29 17:18 41.16968 -84.88663 38931 ft 541 kts 46°
2026-04-29 17:18 41.21796 -84.80989 38930 ft 541 kts 46°
2026-04-29 17:19 41.26610 -84.73305 38936 ft 539 kts 47°
2026-04-29 17:19 41.31411 -84.65630 38930 ft 539 kts 47°
2026-04-29 17:20 41.36204 -84.57945 38933 ft 540 kts 47°
2026-04-29 17:20 41.41000 -84.50236 38934 ft 540 kts 47°
2026-04-29 17:21 41.45757 -84.42571 38940 ft 539 kts 47°
2026-04-29 17:21 41.50525 -84.34867 38943 ft 538 kts 47°
2026-04-29 17:22 41.55290 -84.27150 38935 ft 538 kts 47°
2026-04-29 17:22 41.60053 -84.19415 38938 ft 539 kts 47°
2026-04-29 17:23 41.64823 -84.11650 38948 ft 539 kts 48°
2026-04-29 17:23 41.69537 -84.03953 38947 ft 537 kts 48°
2026-04-29 17:24 41.74270 -83.96210 38949 ft 537 kts 48°
2026-04-29 17:24 41.79003 -83.88444 38950 ft 538 kts 48°
2026-04-29 17:25 41.83743 -83.80649 38947 ft 538 kts 48°
2026-04-29 17:25 41.88451 -83.72882 38947 ft 536 kts 48°
2026-04-29 17:26 41.93158 -83.65102 38947 ft 537 kts 49°
2026-04-29 17:26 41.97836 -83.57347 38945 ft 537 kts 49°
2026-04-29 17:27 42.02535 -83.49539 38954 ft 537 kts 49°
2026-04-29 17:27 42.07235 -83.41707 38721 ft 538 kts 49°
2026-04-29 17:28 42.09581 -83.37793 38473 ft 537 kts 49°
2026-04-29 17:28 42.11928 -83.33879 38155 ft 535 kts 49°
2026-04-29 17:28 42.14266 -83.29981 37816 ft 534 kts 49°
2026-04-29 17:28 42.16608 -83.26081 37509 ft 534 kts 49°
2026-04-29 17:29 42.18920 -83.22162 37214 ft 535 kts 52°
2026-04-29 17:29 42.21054 -83.18034 36950 ft 536 kts 56°
2026-04-29 17:29 42.23051 -83.13877 36638 ft 534 kts 55°
2026-04-29 17:29 42.24465 -83.11075 36425 ft 535 kts 53°
2026-04-29 17:30 42.27367 -83.05693 35932 ft 533 kts 52°
2026-04-29 17:30 42.29519 -83.01604 35496 ft 532 kts 54°
2026-04-29 17:30 42.31601 -82.97477 35071 ft 532 kts 54°
2026-04-29 17:30 42.33699 -82.93364 34658 ft 531 kts 54°
2026-04-29 17:31 42.35833 -82.89281 34256 ft 531 kts 53°
2026-04-29 17:31 42.37954 -82.85205 33829 ft 531 kts 54°
2026-04-29 17:31 42.40062 -82.81084 33369 ft 531 kts 54°
2026-04-29 17:31 42.42161 -82.76972 32883 ft 532 kts 54°
2026-04-29 17:32 42.44285 -82.72844 32407 ft 535 kts 54°
2026-04-29 17:32 42.46418 -82.68701 31947 ft 537 kts 54°
2026-04-29 17:32 42.48547 -82.64537 31501 ft 537 kts 54°
2026-04-29 17:32 42.50661 -82.60389 31076 ft 533 kts 54°
2026-04-29 17:33 42.52768 -82.56260 30941 ft 531 kts 54°
2026-04-29 17:33 42.54879 -82.52127 30947 ft 535 kts 54°
2026-04-29 17:33 42.59067 -82.43888 30951 ft 534 kts 54°
2026-04-29 17:34 42.63279 -82.35587 30944 ft 534 kts 55°
2026-04-29 17:34 42.67488 -82.27264 30946 ft 534 kts 55°
2026-04-29 17:35 42.74061 -82.15002 30956 ft 534 kts 53°
2026-04-29 17:36 42.78471 -82.06865 30955 ft 533 kts 53°
2026-04-29 17:36 42.82412 -81.98309 30955 ft 534 kts 60°
2026-04-29 17:37 42.86010 -81.89527 30957 ft 534 kts 60°
2026-04-29 17:37 42.89664 -81.80715 30963 ft 533 kts 60°
2026-04-29 17:38 42.93283 -81.71882 30964 ft 533 kts 61°
2026-04-29 17:38 42.96906 -81.63056 30933 ft 533 kts 61°
2026-04-29 17:39 43.00521 -81.54197 30928 ft 534 kts 61°
2026-04-29 17:39 43.04074 -81.45478 30924 ft 533 kts 61°
2026-04-29 17:40 43.07674 -81.36605 30920 ft 533 kts 62°
2026-04-29 17:40 43.11156 -81.27636 30905 ft 534 kts 63°
2026-04-29 17:41 43.14668 -81.18677 30922 ft 534 kts 62°
2026-04-29 17:41 43.16396 -81.14260 30917 ft 517 kts 63°
2026-04-29 17:41 43.18051 -81.09983 30895 ft 499 kts 63°
2026-04-29 17:41 43.19684 -81.05763 30273 ft 504 kts 63°
2026-04-29 17:42 43.21331 -81.01529 29594 ft 503 kts 63°
2026-04-29 17:42 43.22972 -80.97303 28888 ft 502 kts 63°
2026-04-29 17:42 43.24613 -80.93057 28211 ft 504 kts 63°
2026-04-29 17:42 43.26262 -80.88781 27521 ft 507 kts 63°
2026-04-29 17:43 43.27920 -80.84483 26916 ft 509 kts 64°
2026-04-29 17:43 43.29566 -80.80212 26283 ft 505 kts 64°
2026-04-29 17:43 43.31198 -80.75966 25658 ft 500 kts 64°
2026-04-29 17:43 43.32273 -80.73167 25253 ft 498 kts 64°
2026-04-29 17:44 43.33861 -80.69025 24660 ft 494 kts 64°
2026-04-29 17:44 43.35993 -80.63458 23883 ft 490 kts 64°
2026-04-29 17:44 43.37041 -80.60715 23489 ft 488 kts 65°
2026-04-29 17:44 43.38612 -80.56602 22804 ft 485 kts 65°
2026-04-29 17:45 43.40167 -80.52522 22099 ft 479 kts 65°
2026-04-29 17:45 43.41681 -80.48555 21410 ft 453 kts 65°
2026-04-29 17:45 43.43103 -80.44823 20738 ft 428 kts 65°
2026-04-29 17:45 43.44446 -80.41282 20100 ft 408 kts 66°
2026-04-29 17:46 43.45719 -80.37877 19450 ft 389 kts 69°
2026-04-29 17:46 43.46700 -80.34457 18849 ft 386 kts 74°
2026-04-29 17:46 43.47663 -80.30984 18259 ft 389 kts 73°
2026-04-29 17:46 43.48640 -80.27493 17596 ft 391 kts 73°
2026-04-29 17:47 43.49616 -80.23999 16952 ft 392 kts 72°
2026-04-29 17:47 43.50584 -80.20518 16311 ft 384 kts 72°
2026-04-29 17:47 43.51523 -80.17126 15679 ft 373 kts 72°
2026-04-29 17:47 43.52393 -80.13851 15040 ft 364 kts 72°
2026-04-29 17:48 43.53243 -80.10614 14420 ft 356 kts 71°
2026-04-29 17:48 43.54087 -80.07448 13822 ft 348 kts 70°
2026-04-29 17:48 43.54920 -80.04353 13164 ft 340 kts 70°
2026-04-29 17:48 43.55721 -80.01356 12476 ft 326 kts 70°
2026-04-29 17:49 43.56483 -79.98482 11824 ft 313 kts 71°
2026-04-29 17:49 43.57214 -79.95723 11179 ft 301 kts 71°
2026-04-29 17:49 43.57923 -79.93055 10534 ft 290 kts 71°
2026-04-29 17:49 43.58606 -79.90490 9936 ft 280 kts 72°
2026-04-29 17:50 43.59263 -79.88004 9274 ft 271 kts 73°
2026-04-29 17:50 43.59716 -79.85537 8586 ft 259 kts 82°
2026-04-29 17:50 43.60107 -79.83144 8075 ft 249 kts 78°
2026-04-29 17:50 43.60503 -79.80853 8004 ft 245 kts 79°
2026-04-29 17:51 43.60879 -79.78550 8006 ft 249 kts 80°
2026-04-29 17:51 43.61246 -79.76249 8002 ft 248 kts 80°
2026-04-29 17:51 43.61591 -79.73940 8000 ft 243 kts 86°
2026-04-29 17:51 43.61258 -79.71723 7996 ft 236 kts 124°
2026-04-29 17:52 43.60182 -79.70063 8015 ft 232 kts 140°
2026-04-29 17:52 43.59402 -79.69055 8013 ft 232 kts 140°
2026-04-29 17:52 43.57820 -79.67036 8004 ft 232 kts 140°
2026-04-29 17:52 43.56668 -79.65535 7999 ft 231 kts 140°
2026-04-29 17:53 43.55498 -79.64005 7857 ft 233 kts 140°
2026-04-29 17:53 43.54312 -79.62458 7937 ft 234 kts 140°
2026-04-29 17:53 43.53121 -79.60908 7998 ft 236 kts 140°
2026-04-29 17:53 43.51932 -79.59361 7997 ft 235 kts 140°
2026-04-29 17:54 43.50739 -79.57809 7996 ft 235 kts 140°
2026-04-29 17:54 43.49549 -79.56261 7989 ft 235 kts 140°
2026-04-29 17:54 43.48360 -79.54717 7991 ft 235 kts 140°
2026-04-29 17:54 43.47187 -79.53195 7993 ft 235 kts 140°
2026-04-29 17:55 43.45998 -79.51650 7986 ft 235 kts 140°
2026-04-29 17:55 43.44808 -79.50106 7988 ft 235 kts 140°
2026-04-29 17:55 43.43617 -79.48562 7989 ft 235 kts 140°
2026-04-29 17:55 43.42423 -79.47016 7989 ft 235 kts 140°
2026-04-29 17:56 43.41232 -79.45473 7996 ft 236 kts 140°
2026-04-29 17:56 43.40036 -79.43925 8000 ft 236 kts 140°
2026-04-29 17:56 43.38843 -79.42378 7982 ft 235 kts 142°
2026-04-29 17:56 43.37682 -79.40878 7981 ft 233 kts 142°
2026-04-29 17:57 43.36509 -79.39364 7982 ft 231 kts 142°
2026-04-29 17:57 43.35505 -79.37625 7967 ft 241 kts 114°
2026-04-29 17:57 43.35440 -79.35284 7871 ft 253 kts 76°
2026-04-29 17:57 43.36263 -79.33175 7716 ft 250 kts 57°
2026-04-29 17:58 43.37396 -79.31359 7554 ft 249 kts 43°
2026-04-29 17:58 43.38785 -79.29955 7403 ft 248 kts 32°
2026-04-29 17:58 43.40343 -79.28983 7225 ft 247 kts
2026-04-29 17:58 43.42033 -79.28651 7088 ft 245 kts
2026-04-29 17:59 43.43720 -79.28419 6936 ft 243 kts
2026-04-29 17:59 43.45399 -79.28486 6787 ft 240 kts 352°
2026-04-29 17:59 43.47026 -79.28867 6613 ft 236 kts 335°
2026-04-29 17:59 43.48478 -79.29861 6482 ft 232 kts 324°
2026-04-29 18:00 43.49787 -79.31155 6343 ft 230 kts 317°
2026-04-29 18:00 43.50990 -79.32544 6094 ft 227 kts 311°
2026-04-29 18:00 43.52106 -79.34065 5825 ft 224 kts 310°
2026-04-29 18:00 43.53188 -79.35588 5557 ft 221 kts 310°
2026-04-29 18:01 43.54249 -79.37120 5324 ft 219 kts 310°
2026-04-29 18:01 43.55286 -79.38653 5055 ft 218 kts 310°
2026-04-29 18:01 43.56246 -79.40282 4639 ft 221 kts 300°
2026-04-29 18:01 43.57082 -79.42050 4343 ft 216 kts 297°
2026-04-29 18:02 43.57686 -79.43917 4004 ft 213 kts 290°
2026-04-29 18:02 43.58242 -79.45813 3566 ft 215 kts 295°
2026-04-29 18:02 43.58893 -79.47665 3015 ft 210 kts 299°
2026-04-29 18:02 43.59557 -79.49380 2506 ft 192 kts 300°
2026-04-29 18:03 43.60113 -79.50934 2188 ft 173 kts 299°
2026-04-29 18:03 43.60513 -79.52491 1626 ft 177 kts 290°
2026-04-29 18:03 43.60674 -79.53027 1391 ft 179 kts 300°